Location: Nena
(32.3271°N, 96.8558°W)
Time: 14:37:32
(UTC+00:00)

Hubble Space Telescope - Visible Passes

Search period start: 30 January 2023 00:00
Search period end: 09 February 2023 00:00
Orbit: 529 x 532 km, 28.5° (Epoch: 29 January)

Date Brightness Start Highest point End Pass type
(mag) Time Alt. Az. Time Alt. Az. Time Alt. Az.
30 Jan 1.6 12:03:03 27° WSW 12:04:36 39° S 12:08:25 10° ESE visible
31 Jan 1.7 11:50:42 32° SW 11:51:27 35° SSW 11:55:13 10° SE visible
01 Feb 1.9 11:38:22 31° SSW 11:38:22 31° SSW 11:41:57 10° SE visible
02 Feb 2.4 11:26:04 25° S 11:26:04 25° S 11:28:39 10° SE visible
03 Feb 3.0 11:13:47 18° SSE 11:13:47 18° SSE 11:15:17 10° SE visible
04 Feb 3.5 11:01:32 11° SSE 11:01:32 11° SSE 11:01:51 10° SSE visible
